User: anonymous   Login
Location: Unspecified
(0.0000°N, 0.0000°E)
Time: 16:35:49
(UTC+00:00)
Language:

Vela 1B - Orbit

View from above orbital plane
View from above orbital plane
View from above satellite
View from above satellite

Ground track
Ground track

The orbit data is extracted from the following two-line orbital elements,

1   674U 63039A   21290.30162602  .00000121  00000-0  00000+0 0  9995
2   674  40.6153 139.0347 2305387 117.2198   0.4317  0.22203982 47051
Epoch (UTC): 17 October 2021 07:14:20
Eccentricity: 0.2305387
inclination: 40.6153°
perigee height: 82262 km
apogee height: 135377 km
right ascension of ascending node: 139.0347°
argument of perigee: 117.2198°
revolutions per day: 0.22203982
mean anomaly at epoch: 0.4317°
orbit number at epoch: 4705

The dashed part of the orbit path shows where the satellite is in the earth's shadow,  

DLR